Date,TemperatureHighF,TemperatureAvgF,TemperatureLowF,DewpointHighF,DewpointAvgF,DewpointLowF,HumidityHigh,HumidityAvg,HumidityLow,PressureMaxIn,PressureMinIn,WindSpeedMaxMPH,WindSpeedAvgMPH,GustSpeedMaxMPH,PrecipitationSumIn
2013-1-1,17,12,6,9,4,-1,86,68,59,0.00,40.00,32,20,42,0.01
2013-1-2,15,12,9,6,3,-2,78,68,56,0.00,40.00,23,19,40,0.00
2013-1-3,24,14,10,8,-2,-11,66,48,23,0.00,40.00,22,8,27,0.00
2013-1-4,29,18,10,10,1,-6,64,48,37,0.00,40.00,7,2,10,0.00
2013-1-5,28,20,8,4,-1,-6,65,42,23,0.00,40.00,30,10,42,0.00
2013-1-6,44,29,15,10,-4,-16,42,24,14,0.00,40.00,21,6,32,0.00
2013-1-7,37,32,21,15,2,-9,58,29,17,0.00,40.00,50,24,65,0.00
2013-1-8,29,27,23,20,18,15,86,71,59,0.00,40.00,42,34,58,0.00
2013-1-9,41,33,26,24,15,5,67,49,23,0.00,40.00,37,11,49,0.00
2013-1-10,46,37,31,15,6,-3,50,29,13,0.00,40.00,37,11,55,0.00
2013-1-11,33,16,4,25,11,-1,100,81,45,0.00,40.00,36,22,49,0.21
2013-1-12,5,0,-7,-1,-5,-10,88,80,70,0.00,40.00,22,9,35,0.00
2013-1-13,1,-4,-9,-4,-9,-16,88,79,63,0.00,40.00,10,4,14,0.00
2013-1-14,4,-3,-10,-8,-13,-19,74,62,50,0.00,40.00,34,14,46,0.00
2013-1-15,25,14,1,19,5,-14,77,66,50,0.00,40.00,34,28,49,0.00
2013-1-16,35,26,21,17,14,8,76,59,42,0.00,40.00,31,20,40,0.00
2013-1-17,37,26,14,17,9,2,75,51,26,0.00,40.00,29,9,44,0.00
2013-1-18,38,33,29,6,4,2,33,28,24,0.00,40.00,35,28,49,0.00
2013-1-19,40,34,28,6,2,-3,37,26,16,0.00,40.00,35,27,49,0.00
2013-1-20,38,30,26,7,3,1,43,31,23,0.00,40.00,34,22,49,0.00
2013-1-21,36,31,26,11,7,-1,46,36,21,0.00,40.00,39,31,54,0.00
2013-1-22,42,38,32,2,-4,-12,26,17,10,0.00,40.00,42,32,62,0.00
2013-1-23,51,43,37,10,-2,-14,32,15,9,0.00,40.00,36,21,50,0.00
2013-1-24,42,37,32,31,16,2,95,48,19,0.00,40.00,45,28,65,0.19
2013-1-25,39,35,33,28,26,24,77,69,57,0.00,40.00,36,18,51,0.00
2013-1-26,44,37,33,30,26,22,83,65,42,0.00,40.00,26,11,38,0.00
2013-1-27,42,35,31,31,25,18,99,68,38,0.00,40.00,28,12,39,0.03
2013-1-28,35,22,11,27,16,5,100,76,51,0.00,40.00,29,16,40,0.21
2013-1-29,16,11,6,9,4,0,94,73,58,0.00,40.00,29,17,41,0.02
2013-1-30,25,17,6,21,12,1,94,82,71,0.00,40.00,41,29,57,0.16
2013-1-31,26,24,22,22,20,17,90,82,75,0.00,40.00,37,29,50,0.12
2013-2-1,27,25,23,25,21,18,99,85,75,0.00,40.00,35,26,50,0.31
2013-2-2,35,29,22,19,13,7,83,53,33,0.00,40.00,43,29,58,0.01
2013-2-3,39,34,27,8,4,-1,43,29,18,0.00,40.00,32,26,45,0.00
2013-2-4,33,30,26,17,11,5,61,46,36,0.00,40.00,47,35,63,0.00
2013-2-5,43,36,28,23,18,11,61,49,27,0.00,40.00,39,28,54,0.01
2013-2-6,38,33,24,27,18,10,79,54,34,0.00,40.00,31,22,44,0.00
2013-2-7,41,28,19,13,0,-17,66,35,10,0.00,40.00,23,8,34,0.00
2013-2-8,42,32,22,22,5,-15,80,33,12,0.00,40.00,16,5,22,0.00
2013-2-9,30,20,16,26,18,14,100,92,66,0.00,40.00,14,2,17,0.98
2013-2-10,16,13,5,15,10,-3,98,90,67,0.00,40.00,13,5,17,0.32
2013-2-11,21,9,2,3,-3,-10,71,57,39,0.00,40.00,29,11,37,0.00
2013-2-12,22,15,9,12,5,-3,79,63,51,0.00,40.00,36,22,48,0.01
2013-2-13,25,22,18,20,17,13,93,82,76,0.00,40.00,46,33,63,0.14
2013-2-14,23,17,13,20,14,10,98,88,74,0.00,40.00,33,14,44,0.52
2013-2-15,24,19,15,17,13,9,88,76,66,0.00,40.00,37,25,53,0.06
2013-2-16,36,30,24,18,14,9,72,51,36,0.00,40.00,41,33,55,0.00
2013-2-17,38,29,17,23,10,-1,97,50,22,0.00,40.00,35,22,48,0.59
2013-2-18,20,16,13,16,10,-3,97,78,35,0.00,40.00,34,18,49,0.06
2013-2-19,36,24,12,12,1,-8,64,37,21,0.00,40.00,12,3,14,0.00
2013-2-20,37,28,17,22,11,2,100,54,25,0.00,40.00,12,6,15,0.00
2013-2-21,18,16,14,17,14,9,99,92,74,0.00,40.00,19,8,26,0.21
2013-2-22,19,16,14,13,8,6,80,71,56,0.00,40.00,45,23,63,0.00
2013-2-23,33,24,16,20,14,8,93,65,43,0.00,40.00,45,19,61,0.17
2013-2-24,19,15,9,17,12,2,97,90,65,0.00,40.00,14,8,17,0.83
2013-2-25,29,19,12,12,7,1,73,59,43,0.00,40.00,32,14,40,0.00
2013-2-26,21,17,14,16,12,8,97,83,66,0.00,40.00,30,16,45,0.22
2013-2-27,18,15,11,10,6,1,85,68,48,0.00,40.00,30,20,43,0.00
2013-2-28,25,20,15,17,10,4,78,65,54,0.00,40.00,35,28,47,0.00
2013-3-1,35,28,21,27,20,12,82,73,60,0.00,40.00,35,28,46,0.02
2013-3-2,44,38,30,24,20,14,78,49,32,0.00,40.00,35,25,49,0.00
2013-3-3,41,35,31,31,25,15,97,71,34,0.00,40.00,35,26,53,0.78
2013-3-4,31,19,11,23,12,4,96,76,63,0.00,40.00,32,20,42,0.38
2013-3-5,41,28,13,11,-1,-12,69,33,11,0.00,40.00,39,18,53,0.00
2013-3-6,50,41,27,16,9,-8,35,27,16,0.00,40.00,30,14,40,0.00
2013-3-7,43,38,31,27,21,14,73,51,32,0.00,40.00,35,10,54,0.00
2013-3-8,47,38,26,28,17,6,93,45,19,0.00,40.00,17,8,24,0.02
2013-3-9,33,24,18,28,21,14,100,88,72,0.00,40.00,20,11,26,0.46
2013-3-10,33,25,17,18,14,0,98,63,30,0.00,40.00,29,20,44,0.03
2013-3-11,31,27,20,28,20,14,100,78,53,0.00,40.00,37,20,49,0.47
2013-3-12,36,27,17,28,23,16,100,84,68,0.00,40.00,34,20,48,0.01
2013-3-13,45,39,33,28,26,22,83,60,44,0.00,40.00,40,27,57,0.01
2013-3-14,51,45,39,25,21,18,54,38,29,0.00,40.00,30,23,45,0.00
2013-3-15,52,48,40,29,19,12,64,32,20,0.00,40.00,36,25,50,0.00
2013-3-16,45,39,28,27,16,3,85,42,18,0.00,40.00,30,16,40,0.00
2013-3-17,37,30,18,26,12,1,94,48,26,0.00,40.00,44,26,61,0.03
2013-3-18,31,22,15,15,7,2,66,52,30,0.00,40.00,37,24,50,0.00
2013-3-19,35,26,17,10,1,-10,63,37,14,0.00,40.00,35,21,51,0.00
2013-3-20,44,34,22,30,9,-12,92,41,15,0.00,40.00,35,22,49,0.15
2013-3-21,36,29,19,31,23,8,99,77,59,0.00,40.00,34,24,47,0.55
2013-3-22,24,18,14,12,8,-1,91,66,33,0.00,40.00,28,16,35,0.00
2013-3-23,14,10,7,11,9,5,96,94,89,0.00,40.00,17,10,21,0.55
2013-3-25,24,18,8,9,2,-5,73,51,33,0.00,40.00,17,10,22,0.00
2013-3-26,37,30,18,29,18,-4,95,62,32,0.00,40.00,27,17,40,0.02
2013-3-27,43,35,25,27,24,19,89,65,39,0.00,40.00,21,9,30,0.00
2013-3-28,49,41,34,26,22,19,64,47,30,0.00,40.00,16,11,24,0.00
2013-3-29,49,42,35,35,27,23,90,56,38,0.00,40.00,27,14,36,0.03
2013-3-30,48,39,30,29,23,-100,68,55,31,0.00,40.00,29,18,43,0.00
2013-3-31,52,41,31,24,15,4,73,37,18,0.00,40.00,32,18,46,0.00
2013-4-1,48,35,22,32,25,19,96,69,37,0.00,40.00,16,6,21,0.00
2013-4-2,37,33,29,33,29,25,100,86,65,0.00,40.00,16,9,22,0.00
2013-4-3,52,39,28,33,21,9,93,52,21,0.00,40.00,24,11,34,0.01
2013-4-4,54,45,35,28,24,18,75,45,27,0.00,40.00,22,14,35,0.00
2013-4-5,54,45,36,38,25,17,90,49,26,0.00,40.00,38,19,52,0.01
2013-4-6,45,38,32,34,25,21,87,62,39,0.00,40.00,30,19,41,0.15
2013-4-7,44,38,33,33,27,20,90,67,37,0.00,40.00,32,21,45,0.01
2013-4-8,45,32,14,31,23,12,100,74,40,0.00,40.00,28,13,34,0.34
2013-4-9,14,5,-1,13,3,-3,96,92,90,0.00,40.00,25,8,32,0.33
2013-4-10,27,15,0,23,9,-2,90,76,54,0.00,40.00,32,18,42,0.03
2013-4-11,36,31,27,29,25,22,100,79,58,0.00,40.00,33,19,45,0.07
2013-4-12,40,31,26,30,25,12,100,81,42,0.00,40.00,25,10,38,0.04
2013-4-13,44,36,28,33,22,12,100,60,30,0.00,40.00,39,23,57,0.41
2013-4-14,27,22,15,24,10,2,93,60,35,0.00,40.00,32,22,44,0.00
2013-4-15,24,19,15,19,17,9,99,93,53,0.00,40.00,21,11,31,0.01
2013-4-16,24,19,14,23,18,13,99,96,84,0.00,40.00,31,22,39,1.03
2013-4-17,18,12,7,17,12,6,98,96,94,0.00,40.00,26,13,32,1.10
2013-4-18,24,14,6,15,7,3,94,74,45,0.00,40.00,32,20,42,0.00
2013-4-19,34,28,21,24,19,15,78,71,61,0.00,40.00,40,30,56,0.01
2013-4-20,41,35,31,32,28,24,99,76,56,0.00,40.00,26,18,36,0.02
2013-4-21,43,37,31,28,24,18,81,62,41,0.00,40.00,34,23,47,0.02
2013-4-22,38,23,11,31,20,10,100,91,52,0.00,40.00,21,13,30,0.71
2013-4-23,27,17,4,20,10,2,98,77,47,0.00,40.00,20,9,29,0.02
2013-4-24,37,29,20,17,10,5,63,45,30,0.00,40.00,24,16,32,0.00
2013-4-25,49,40,31,17,9,3,33,27,20,0.00,40.00,24,16,35,0.00
2013-4-26,52,44,30,20,12,7,51,27,17,0.00,40.00,16,8,21,0.00
2013-4-27,58,50,42,22,15,10,33,25,18,0.00,40.00,26,18,36,0.00
2013-4-28,61,52,45,30,23,18,55,33,23,0.00,40.00,32,21,44,0.00
2013-4-29,60,50,41,31,21,16,66,34,19,0.00,40.00,40,23,57,0.00
2013-4-30,51,39,26,35,30,22,100,74,32,0.00,40.00,32,15,50,0.47
2013-5-1,26,21,14,26,20,13,100,98,88,0.00,40.00,20,12,27,0.17
2013-5-2,39,27,13,20,12,8,87,57,27,0.00,40.00,21,10,29,0.00
2013-5-3,51,42,33,29,14,8,62,33,19,0.00,40.00,19,12,25,0.00
2013-5-4,48,41,35,28,25,20,71,53,34,0.00,40.00,22,16,32,0.00
2013-5-5,49,40,29,33,26,22,77,60,37,0.00,40.00,22,12,29,0.00
2013-5-6,56,46,36,33,29,24,75,52,30,0.00,40.00,19,6,30,0.00
2013-5-7,55,46,38,40,32,27,81,61,35,0.00,40.00,19,9,26,0.00
2013-5-8,54,44,38,39,34,29,98,68,40,0.00,40.00,21,10,29,0.17
2013-5-9,50,42,36,39,35,30,96,75,45,0.00,40.00,17,9,25,0.04
2013-5-10,56,46,36,36,28,-100,92,54,26,0.00,40.00,15,8,25,0.00
2013-5-11,60,49,38,36,27,-100,82,47,16,0.00,40.00,22,10,34,0.00
2013-5-12,68,57,43,29,27,24,54,33,20,0.00,40.00,20,12,29,0.00
2013-5-13,72,63,53,33,30,26,40,29,19,0.00,40.00,18,13,26,0.00
2013-5-14,72,65,57,31,27,22,33,24,16,0.00,40.00,19,13,28,0.00
2013-5-15,67,58,51,41,33,27,70,40,25,0.00,40.00,24,12,34,0.00
2013-5-16,67,54,47,44,20,-100,89,45,18,0.00,40.00,32,15,44,0.03
2013-5-17,69,59,47,35,20,-100,58,28,14,0.00,40.00,19,11,27,0.00
2013-5-18,58,49,43,37,30,23,75,48,27,0.00,40.00,32,14,44,0.00
2013-5-19,47,42,38,39,34,30,99,75,54,0.00,40.00,27,20,39,0.08
2013-5-20,44,39,35,38,35,27,100,85,62,0.00,40.00,29,18,37,0.17
2013-5-21,53,43,34,32,28,25,74,57,35,0.00,40.00,22,14,32,0.00
2013-5-22,63,51,38,40,34,28,80,54,30,0.00,40.00,29,11,41,0.00
2013-5-23,65,54,42,45,40,29,92,60,38,0.00,40.00,30,21,40,0.00
2013-5-24,68,58,45,34,21,12,47,25,14,0.00,40.00,20,12,29,0.00
2013-5-25,71,62,48,20,16,11,32,17,10,0.00,40.00,20,11,30,0.00
2013-5-26,72,63,55,28,16,10,23,16,10,0.00,40.00,17,11,24,0.00
2013-5-27,64,58,50,29,21,13,35,24,18,0.00,40.00,27,14,36,0.00
2013-5-28,64,53,42,39,25,13,81,34,22,0.00,40.00,25,10,35,0.00
2013-5-29,51,44,38,40,36,29,88,74,44,0.00,40.00,33,15,47,0.02
2013-5-30,53,44,37,34,26,16,83,53,24,0.00,40.00,41,30,59,0.00
2013-5-31,54,44,36,33,24,19,71,48,25,0.00,40.00,34,26,52,0.00
2013-6-1,58,46,36,35,33,28,91,64,34,0.00,40.00,27,14,37,0.00
2013-6-2,72,60,40,32,24,17,72,28,14,0.00,40.00,19,11,32,0.00
2013-6-3,68,62,46,29,16,7,36,18,9,0.00,40.00,29,21,44,0.00
2013-6-4,64,51,38,37,24,16,78,39,19,0.00,40.00,22,11,34,0.00
2013-6-5,62,49,38,38,31,18,87,57,19,0.00,40.00,17,8,27,0.00
2013-6-6,67,57,45,34,26,17,51,31,22,0.00,40.00,15,6,21,0.00
2013-6-7,72,60,47,38,33,27,68,39,20,0.00,40.00,21,11,29,0.00
2013-6-8,67,59,47,44,32,22,85,39,19,0.00,40.00,24,14,41,0.00
2013-6-9,80,66,49,34,28,24,42,24,13,0.00,40.00,21,14,34,0.00
2013-6-10,83,73,64,36,28,25,26,19,13,0.00,40.00,30,14,50,0.00
2013-6-11,77,71,62,26,19,15,21,14,11,0.00,40.00,24,17,39,0.00
2013-6-12,78,68,54,37,27,19,36,23,13,0.00,40.00,18,9,27,0.00
2013-6-13,80,72,62,37,27,17,41,19,14,0.00,40.00,26,12,35,0.00
2013-6-14,74,64,53,31,22,15,41,22,11,0.00,40.00,26,16,35,0.00
2013-6-15,73,60,44,38,20,6,52,24,11,0.00,40.00,21,8,32,0.00
2013-6-16,74,64,53,34,23,15,39,22,13,0.00,40.00,27,12,40,0.00
2013-6-17,74,62,48,44,34,19,68,37,13,0.00,40.00,19,8,27,0.00
2013-6-18,71,61,48,45,36,20,85,44,17,0.00,40.00,23,9,37,0.00
2013-6-19,80,69,52,42,19,11,65,19,8,0.00,40.00,22,14,42,0.00
2013-6-20,69,57,51,24,15,7,25,19,14,0.00,40.00,19,9,27,0.00
2013-6-22,74,63,55,40,24,15,50,23,13,0.00,40.00,24,13,40,0.00
2013-6-23,73,61,43,33,22,14,55,25,11,0.00,40.00,19,9,29,0.00
2013-6-24,76,67,59,28,22,17,29,18,11,0.00,40.00,21,12,33,0.00
2013-6-25,71,63,50,37,34,28,61,34,26,0.00,40.00,29,15,42,0.00
2013-6-26,81,71,56,38,32,27,46,25,15,0.00,40.00,21,11,34,0.00
2013-6-27,84,73,61,36,31,26,35,22,13,0.00,40.00,18,11,28,0.00
2013-6-28,83,71,58,48,41,27,53,35,13,0.00,40.00,16,8,24,0.00
2013-6-29,81,69,53,51,43,34,82,43,19,0.00,40.00,14,7,21,0.00
2013-6-30,75,64,52,51,47,42,88,57,30,0.00,40.00,18,7,24,0.01
2013-7-1,74,65,57,46,42,39,62,45,30,0.00,40.00,13,7,20,0.00
2013-7-2,75,65,56,44,39,33,55,40,21,0.00,40.00,14,6,21,0.00
2013-7-3,78,68,59,43,38,32,51,34,21,0.00,40.00,17,10,43,0.00
2013-7-4,79,67,58,52,43,34,78,44,19,0.00,40.00,22,8,33,0.03
2013-7-5,73,64,55,52,48,43,87,59,34,0.00,40.00,19,9,26,0.00
2013-7-6,77,67,55,52,40,31,92,41,19,0.00,40.00,23,13,32,0.00
2013-7-7,79,68,54,49,39,28,77,39,16,0.00,40.00,22,9,31,0.00
2013-7-8,78,67,59,48,40,37,51,38,22,0.00,40.00,19,10,27,0.00
2013-7-9,81,71,62,39,35,29,43,28,15,0.00,40.00,21,10,31,0.00
2013-7-10,83,70,55,50,31,-100,56,29,13,0.00,40.00,16,9,27,0.00
2013-7-11,87,77,64,50,36,26,60,25,11,0.00,40.00,23,9,34,0.00
2013-7-12,77,68,58,55,49,45,87,54,35,0.00,40.00,30,13,41,0.01
2013-7-13,74,65,60,55,51,49,71,60,41,0.00,40.00,18,9,26,0.01
2013-7-15,76,70,58,55,51,46,76,54,34,0.00,40.00,19,11,26,0.00
2013-7-16,76,66,56,50,43,38,73,46,26,0.00,40.00,21,10,30,0.00
2013-7-17,80,64,51,51,46,40,79,55,31,0.00,40.00,17,8,24,0.00
2013-7-18,78,69,63,54,46,44,71,46,30,0.00,40.00,18,11,26,0.00
2013-7-19,76,67,58,53,46,38,66,48,30,0.00,40.00,23,11,32,0.00
2013-7-20,78,68,59,49,40,-100,49,38,27,0.00,40.00,21,10,27,0.00
2013-7-21,83,75,55,44,24,11,49,17,7,0.00,40.00,25,13,35,0.00
2013-7-22,84,72,56,45,22,6,65,20,5,0.00,40.00,20,10,30,0.00
2013-7-23,83,72,64,52,26,11,64,23,8,0.00,40.00,18,11,27,0.00
2013-7-24,79,68,57,52,46,41,70,48,27,0.00,40.00,22,9,35,0.00
2013-7-25,69,62,52,51,46,42,92,58,37,0.00,40.00,19,9,25,0.00
2013-7-26,77,66,50,48,37,31,84,39,19,0.00,40.00,25,9,38,0.00
2013-7-27,77,65,55,52,39,30,84,45,19,0.00,40.00,21,7,30,0.00
2013-7-28,72,62,56,52,45,39,76,55,29,0.00,40.00,21,9,31,0.08
2013-7-29,71,63,57,43,38,28,55,40,20,0.00,40.00,20,13,29,0.00
2013-7-30,73,63,53,45,40,35,68,45,25,0.00,40.00,20,9,30,0.00
2013-7-31,76,66,51,47,41,33,65,42,20,0.00,40.00,16,8,23,0.03
2013-8-1,80,65,55,48,41,33,63,43,19,0.00,40.00,28,12,41,0.00
2013-8-2,78,69,62,46,39,28,51,36,17,0.00,40.00,30,18,39,0.00
2013-8-3,79,67,55,52,40,30,72,41,18,0.00,40.00,15,9,21,0.00
2013-8-4,78,69,52,48,36,28,86,34,16,0.00,40.00,21,12,35,0.00
2013-8-5,76,70,66,39,34,24,33,27,15,0.00,40.00,22,17,29,0.00
2013-8-6,79,70,63,37,32,23,35,25,12,0.00,40.00,23,13,49,0.00
2013-8-7,77,68,55,47,36,23,57,33,13,0.00,40.00,16,6,24,0.00
2013-8-8,70,60,48,47,39,31,76,48,27,0.00,40.00,19,6,30,0.00
2013-8-9,68,60,50,43,38,32,62,45,28,0.00,40.00,19,8,26,0.00
2013-8-10,75,64,49,42,35,26,72,36,16,0.00,40.00,22,10,32,0.00
2013-8-11,70,62,56,49,39,35,65,44,30,0.00,40.00,16,9,26,0.00